Regional Weather Roundup
Issued by NWS

Home | Current Version | Previous Version | Graphics & Text | Print | Product List | Glossary On
Versions: 1 2 3 4 5 6 7 8 9 10 11 12 13 14 15 16 17 18 19 20 21 22 23 24 25 26 27 28 29 30 31 32 33 34 35 36 37 38 39 40 41 42 43 44 45 46 47 48 49 50
000
ASUS43 KFSD 111110
RWRSD

WEATHER ROUNDUP FOR SOUTH DAKOTA
NATIONAL WEATHER SERVICE SIOUX FALLS SD
600 AM CDT FRI JUL 11 2014

NOTE: "FAIR" INDICATES FEW OR NO CLOUDS BELOW 12,000 FEET WITH NO
SIGNIFICANT WEATHER AND/OR OBSTRUCTIONS TO VISIBILITY.


SDZ001>005-009-010-012>017-111200-
NORTHWEST AND NORTH CENTRAL SOUTH DAKOTA

CITY           SKY/WX    TMP DP  RH WIND       PRES   REMARKS
BUFFALO          N/A     61  59  93 NW3       29.87R
FAITH            N/A     67  66  97 SW3       29.89R
MOBRIDGE       PTCLDY    62  61  96 CALM      29.83R FOG
$$

SDZ012>016-024>037-041>051-057-063-072>074-111200-
SOUTHWEST AND SOUTH CENTRAL SOUTH DAKOTA

CITY           SKY/WX    TMP DP  RH WIND       PRES   REMARKS
RAPID CTY ARPT MOCLDY    63  60  90 NW5       29.94R
PIERRE         PTCLDY    66  66 100 SW8       29.86R FOG
CUSTER         MOCLDY    62  53  72 NW3       30.09R
ELLSWORTH AFB  PTCLDY    68  61  77 CALM      29.95R
PHILIP         MOCLDY    66  61  84 NW6       29.88R
PINE RIDGE     MOCLDY    64  63  96 CALM      29.96S
WINNER         FAIR      73  64  73 S8        29.87F
$$

SDZ004>011-016>023-039-040-111200-
NORTHEAST SOUTH DAKOTA

CITY           SKY/WX    TMP DP  RH WIND       PRES   REMARKS
ABERDEEN       CLEAR     66  66 100 S6        29.82S
WATERTOWN      MOCLDY    69  66  90 S10       29.87S
SISSETON         N/A     73  68  84 W17G25    29.80S
$$

SDZ017-020-022-023-036>040-048>070-111200-
SOUTHEAST SOUTH DAKOTA

CITY           SKY/WX    TMP DP  RH WIND       PRES   REMARKS
SIOUX FALLS    CLOUDY    71  66  84 S20G26    29.91F
HURON          PTCLDY    73  66  78 S8        29.83F
CHAMBERLAIN    PTCLDY    71  66  85 SW8       29.85F
MITCHELL       CLOUDY    72  67  84 S10       29.85F
YANKTON        CLOUDY    70  66  88 S16       29.94S THUNDER
$$

ABBREVIATIONS USED IN REMARKS
   TC - TEMPERATURE IN CELSIUS
  WCI - WIND CHILL INDEX
   HX - HEAT INDEX
  VSB - VISIBILITY



USA.gov is the U.S. government's official web portal to all federal, state and local government web resources and services.